Regional Weather Roundup
Issued by NWS

Home | Current Version | Previous Version | Text Only | Print | Product List | Glossary On
Versions: 1 2 3 4 5 6 7 8 9 10 11 12 13 14 15 16 17 18 19 20 21 22 23 24 25 26 27 28 29 30 31 32 33 34 35 36 37 38 39 40 41 42 43 44 45 46 47 48 49 50
000
ASUS43 KTOP 280759
RWRKS

WEATHER ROUNDUP FOR KANSAS
NATIONAL WEATHER SERVICE GOODLAND KS
300 AM CDT MON JUL 28 2014

NOTE:  "FAIR" INDICATES FEW OR NO CLOUDS BELOW 12,000 FEET WITH NO
SIGNIFICANT WEATHER AND/OR OBSTRUCTIONS TO VISIBILITY.

KSZ001>006-013>018-027>032-041>047-280900-
NORTHWEST KANSAS

CITY           SKY/WX    TMP DP  RH WIND       PRES   REMARKS
GOODLAND       CLOUDY    64  52  64 S8        30.32S
HAYS           PTCLDY    64  52  63 CALM      30.24S
HILL CITY      PTCLDY    61  55  81 CALM      30.25F
RUSSELL        PTCLDY    66  54  65 CALM      30.22S
$$

KSZ061>065-074>080-084>089-280900-
SOUTHWEST KANSAS

CITY           SKY/WX    TMP DP  RH WIND       PRES   REMARKS
DODGE CITY     MOCLDY    69  55  60 E3        30.25S
ELKHART          N/A     69  58  68 E3          N/A
GARDEN CITY    MOCLDY    67  59  75 NE5       30.26F
GREAT BEND     PTCLDY    64  59  82 CALM      30.22R
LIBERAL        MOCLDY    72  54  53 CALM      30.27F
$$

KSZ066>073-081>083-090>101-280900-
SOUTHEAST KANSAS

CITY           SKY/WX    TMP DP  RH WIND       PRES   REMARKS
CHANUTE        CLEAR     67  57  70 N3        30.15S
COFFEYVILLE    HAZE      65  60  84 N3        30.13S VSB 3/4
HUTCHINSON     PTCLDY    70  55  59 NE7       30.20R
MEDICINE LODGE   N/A     70  58  65 E5        30.19S
NEWTON         PTCLDY    68  52  56 NE6       30.22S
PARSONS        CLEAR     69  57  65 N6        30.15S
WICHITA INTL   PTCLDY    72  57  59 NE9       30.18S
WICHITA JABRA  PTCLDY    65  57  75 NE6       30.18R
WINFIELD       CLEAR     68  58  70 NE5       30.17S
$$

KSZ007>012-019>026-033>040-048>060-102>105-280900-
NORTHEAST KANSAS

CITY           SKY/WX    TMP DP  RH WIND       PRES   REMARKS
CONCORDIA      CLEAR     65  59  81 CALM      30.22S
EMPORIA        CLEAR     64  58  80 NW3       30.17S
LAWRENCE       CLEAR     60  57  89 CALM      30.16R
MANHATTAN      CLEAR     66  57  72 N3        30.18S
OLATHE IND     CLEAR     61  57  87 NW6       30.16R
OLATHE EXE     CLEAR     67  57  70 N5        30.14S
SALINA         PTCLDY    71  57  61 NE6       30.20R
TOPEKA BILLARD CLEAR     65  58  78 NW3       30.16F
TOPEKA FORBES  CLEAR     63  56  78 N5        30.16F
$$


USA.gov is the U.S. government's official web portal to all federal, state and local government web resources and services.